Location: Arlington
(40.6323°N, 74.1651°W)
Time: 22:37:09
(UTC+00:00)

Daily predictions for brighter satellites

Satellite Brightness Start Highest point End
(mag) Time Altitude Azimuth Time Altitude Azimuth Time Altitude Azimuth
SL-16 R/B 3.7 21:56:36 10° SE 21:59:58 16° E 22:03:21 10° ENE
PSLV R/B 4.0 21:57:44 10° NNE 22:01:58 85° E 22:06:09 10° SSW
COBE Rocket 4.4 21:57:59 10° NNE 22:02:19 36° E 22:06:36 10° SSE
Cosmos 2322 Rocket 3.8 22:01:53 10° SE 22:04:55 15° E 22:07:57 10° ENE
H-2A R/B 3.2 22:01:37 10° SE 22:05:11 39° ENE 22:08:45 10° N
NOSS 3-1 (A) 4.2 22:00:08 10° WSW 22:05:26 46° NW 22:11:32 10° NNE
ISS -1.9 22:03:34 10° S 22:05:54 18° SE 22:08:15 10° E
NOSS 2-3 (D) 4.2 22:02:08 10° SW 22:06:22 58° NW 22:11:17 10° NNE
Cosmos 2297 Rocket 3.6 22:01:21 10° NW 22:06:41 44° WSW 22:11:59 10° S
Lacrosse 4 Rocket 3.2 22:03:44 10° WSW 22:07:15 28° NW 22:10:47 10° N
Cosmos 2227 Rocket 3.5 22:02:31 10° NW 22:07:55 47° WSW 22:13:17 10° S
YAOGAN 1 4.3 22:07:40 10° E 22:09:20 12° ENE 22:11:01 10° NE
Envisat 3.7 22:06:47 10° SE 22:11:11 31° ENE 22:15:36 10° N
Cosmos 158 Rocket 4.2 22:06:27 10° S 22:11:35 55° ESE 22:16:38 10° NNE
SL-8 R/B 3.7 22:08:01 10° SW 22:12:50 85° SSE 22:17:39 10° ENE
Cosmos 1470 Rocket 4.2 22:09:39 10° NNE 22:13:44 33° ENE 22:17:46 10° SE
IRS-1C Rocket 4.1 22:12:04 10° SSE 22:17:20 83° ENE 22:22:39 10° NNW
Cosmos 724 4.2 22:11:30 10° NNW 22:17:21 83° ENE 22:23:08 10° SSE
Cosmos 2263 Rocket 3.1 22:13:20 10° N 22:17:57 26° NE 22:22:33 10° ESE
Tsikada Rocket 4.4 22:14:04 10° SSE 22:20:02 44° E 22:26:04 10° NNE
Hubble Space Telescope 3.3 22:18:38 10° SSW 22:20:26 13° S 22:22:15 10° SE
AQUARIUS 4.1 22:21:08 10° SSE 22:25:36 77° ENE 22:30:07 10° N
Meteor 2-11 Rocket 4.4 22:22:30 10° N 22:28:37 67° E 22:34:43 10° SSE
GENESIS II 4.2 22:24:48 10° SSW 22:28:49 84° ESE 22:32:56 10° NE
APEX 3.7 22:25:43 10° SW 22:28:59 45° WNW 22:31:49 10° NNE
Cosmos 1400 Rocket 4.2 22:26:34 10° SE 22:29:37 20° E 22:31:51 14° NE
Cosmos 1697 Rocket 3.8 22:27:02 10° SW 22:32:22 43° WNW 22:37:45 10° N
Cosmos 1464 Rocket 4.2 22:28:37 10° N 22:34:45 78° W 22:40:51 10° S
SMAP 3.3 22:32:08 10° S 22:36:46 74° WSW 22:41:27 10° NNW
SKYMED 2 4.0 22:33:53 10° NNE 22:37:58 39° E 22:42:02 10° SSE
Geosat 4.3 22:33:35 10° NE 22:38:26 46° ESE 22:43:14 10° S
Cosmos 1633 4.1 22:35:14 10° NNW 22:38:39 39° W 22:42:01 10° SSW
Cosmos 1452 Rocket 4.4 22:35:29 10° N 22:39:58 27° ENE 22:44:25 10° ESE
Cosmos 2346 Rocket 4.4 22:35:48 10° S 22:41:59 78° E 22:48:10 10° N
Cosmos 1371 Rocket 4.0 22:37:42 10° NNW 22:42:56 90° SSW 22:48:05 10° SSE
BREEZE-M R/B 3.7 22:38:50 10° SW 22:44:59 46° SE 22:46:59 23° E
ATLAS 3B R/B 4.3 22:44:18 10° N 22:47:22 13° NNE 22:49:07 12° NE
ATLAS 2AS CENTAUR R/B 4.2 22:42:23 10° SSE 22:47:46 20° ESE 22:49:58 18° E
Cosmos 1151 Rocket 3.6 22:47:54 10° SSW 22:52:12 61° W 22:56:34 10° N
NOSS 2-2 (E) 4.3 22:53:23 10° S 22:56:20 24° ESE 22:56:21 24° ESE
Cosmos 1606 2.5 22:56:02 10° S 22:59:46 74° E 23:03:26 11° NNE
FengYun 1-2 T 4.1 22:56:49 10° SSE 23:02:16 68° ENE 23:07:44 10° N
GPS 2-04 Rocket1 3.6 23:01:08 10° WSW 23:04:19 33° S 23:05:44 23° SE
ATLAS 5 CENTAUR R/B 3.7 23:04:25 10° SSE 23:05:16 12° SSE 23:05:16 12° SSE
Okean-O 3.3 23:04:44 10° S 23:09:05 56° W 23:13:28 10° NNW
CSL-04 Debris 4.2 23:05:32 10° SSE 23:10:53 56° ENE 23:16:15 10° N
NOAA 11 4.5 23:09:24 10° SE 23:14:28 42° ENE 23:19:33 10° N
SeaSat 1 2.4 23:10:27 10° SE 23:15:17 61° ENE 23:20:09 10° NNW
Cosmos 2227 4.3 23:10:44 10° NNW 23:16:32 82° WSW 23:22:14 10° SSE
CSL-04 Rocket 3.5 23:13:28 10° SSE 23:18:43 65° ENE 23:23:58 10° N
Cosmos 1933 Rocket 4.1 23:16:42 10° NNW 23:21:00 60° W 23:25:17 10° S
USA 116 4.3 23:17:23 10° NNE 23:22:23 79° ESE 23:27:42 10° S
DELTA 2 R/B (1) 3.6 23:17:28 10° WSW 23:23:03 73° SSE 23:24:57 42° E
GEOS 3 Rocket 3.8 23:21:07 23° NNE 23:24:29 73° NW 23:29:44 10° SW
YAOGAN 6 2.9 23:21:43 10° S 23:25:09 62° W 23:28:38 10° NNW
CZ-4 R/B 1.4 23:21:22 10° S 23:25:28 81° WSW 23:29:31 10° NNW
COSMO-SKYMED 1 3.1 23:21:42 10° N 23:25:59 59° WNW 23:30:14 10° SSW
Cosmos 2228 Rocket 3.5 23:22:03 10° SSW 23:26:29 63° W 23:30:59 10° N
BREEZE-M DEB (TANK) 3.7 23:23:34 10° WNW 23:27:51 24° N 23:27:54 24° N
Cosmos 468 4.4 23:23:18 10° S 23:28:34 66° ESE 23:30:27 39° NE
USA 215 4.5 23:29:30 22° NNE 23:30:57 24° NNE 23:35:56 10° NW
COSMOS 2455 2.7 23:25:58 10° SSW 23:31:56 69° ESE 23:34:09 40° NE
Cosmos 2360 Rocket 2.6 23:28:50 10° S 23:33:39 42° ESE 23:33:39 42° ESE
Cosmos 1980 Rocket 4.2 23:35:47 10° WSW 23:40:17 24° NW 23:44:50 10° N
ISS -2.5 23:39:05 10° WSW 23:41:35 40° W 23:41:35 40° W
NOSS 2-2 (D) 4.4 23:39:29 10° SSW 23:41:33 32° SSW 23:41:33 32° SSW
SL-16 R/B 2.4 23:37:47 10° SSW 23:43:24 67° WNW 23:46:39 26° NNE
YAOGAN 1 2.9 23:40:36 10° S 23:44:52 65° WSW 23:49:11 10° NNW
NOSS 3-2 (C) 4.5 23:38:37 10° NNW 23:45:34 39° NE 23:45:51 39° NE
ATLAS 5 CENTAUR R/B 4.5 23:44:24 10° SSW 23:48:10 15° SSE 23:51:57 13° SE
Cosmos 2322 Rocket 2.3 23:42:40 10° SSW 23:48:15 71° WNW 23:50:43 34° N
Cosmos 1634 Rocket 4.3 23:44:38 10° NNW 23:50:44 64° W 23:56:48 10° S
Cosmos 1782 3.4 23:46:56 10° SSW 23:50:12 53° SW 23:50:12 53° SW
